Zurück zum Katalog

ONEWEB-0574

AktivKommunikationPO
NORAD 56063·PAYLOAD·🇬🇧 United Kingdom

Gestartet Mar 26, 2023 von Satish Dhawan Space Centre

Loading…

Nächste Überflüge (nächste 24 Stunden)

TLE

AktuellSource: CelesTrak SupGP

Epoche: Sep 14, 2026, 19:46 UTC

1 56063C 23043T   26257.82377732  .00002817  00000+0  68289-2 0  2572
2 56063  87.9283 226.1348 0002252  85.9464 309.5789 13.21825662    10

Verfolge ONEWEB-0574 in Echtzeit mit AllMySat

Download on the App Store